Вернуться в каталог

CZ-6A DEB

АктивенSSO
NORAD 58434·DEBRIS·🇨🇳 China

Запущен Nov 11, 2022 с Taiyuan Satellite Launch Center

Loading…

Ближайшие Пролёты (ближайшие 24 часа)

TLE

УстаревающийSource: Space-Track

Эпоха: Sep 8, 2026, 20:49 UTC

1 58434U 22151AJC 26251.86784138  .00000105  00000-0  52274-4 0  9996
2 58434  98.7016 294.2072 0105020 171.7498 188.5443 14.32673600174656

Отслеживайте CZ-6A DEB в реальном времени с AllMySat

Download on the App Store